Other Public Products
Issued by NWS Grand Forks, ND

Home | Current Version | Previous Version | Text Only | Print | Product List | Glossary On
Versions: 1 2 3 4 5 6 7 8 9 10 11 12 13 14 15 16 17 18 19 20 21 22 23 24 25 26 27 28 29 30 31 32 33 34 35 36 37 38 39 40 41 42 43 44 45 46 47 48 49 50
000
FPUS83 KFGF 191731
OPUFGF
PRAIRIE TO PINES WEATHER ROUNDUP
NATIONAL WEATHER SERVICE EASTERN NORTH DAKOTA/GRAND FORKS ND
1100 AM CST THU JAN 19 2017

 **SATELLITE DATA USED TO AUGMENT SKY COVER AT AUTOMATED STATIONS**
 *****  WEATHER ACROSS EASTERN NORTH DAKOTA  *****

CITY           SKY/WX    TMP DP  RH WIND       PRES   REMARKS
GRAND FORKS    PTSUNNY   26  22  84 S18       29.58S FOG     WCI  13
GRAND FORKS AF CLOUDY    25  23  93 S15       29.57S FOG     WCI  12
GRAND CITY NWS NOT AVBL
BUXTON           N/A     26  26  99 S9          N/A  WCI  17
DEVILS LAKE    FAIR      25  20  81 SE7       29.52S WCI  17
FARGO          FAIR      33  31  92 S10       29.63R WCI  25
WAHPETON ARPT  FAIR      34  32  93 SE6       29.64S
$$

 *****  WEATHER ACROSS CENTRAL AND WESTERN NORTH DAKOTA  *****

CITY           SKY/WX    TMP DP  RH WIND       PRES   REMARKS
JAMESTOWN      FAIR      19  16  88 S10       29.55S WCI   7
BISMARCK       FAIR      18  11  74 CALM      29.54R
MINOT          FAIR      35  26  69 SW9       29.47S
MINOT AFB      FAIR      29  24  81 W8        29.46F WCI  22
GARRISON         N/A     18  14  84 CALM      29.49F
WILLISTON      FAIR      23  17  78 SW5       29.51R WCI  17
DICKINSON      FAIR      29  19  66 CALM      29.47S
HETTINGER      FAIR      23  16  74 NW5       29.51S WCI  17
$$

 *****  OTHER OBSERVATIONS NORTHEAST NORTH DAKOTA  *****

CITY           SKY/WX    TMP DP  RH WIND       PRES   REMARKS
WALHALLA       NOT AVBL
LANGDON        NOT AVBL
CAVALIER         N/A     25  19  80 S14       29.53S WCI  13
GRAFTON        CLOUDY    23  23 100 S21       29.58S FOG     WCI   8
CANDO          NOT AVBL
FORT TOTTEN      N/A     30  18  61 S7        29.95S WCI  23
ROLLA            N/A    N/A N/A N/A MISG        N/A
RUGBY            N/A     25  19  80 S6        29.49S WCI  18
 ***** THE ABOVE OBSERVATIONS ARE NON NWS ARE NOT QUALITY
        CONTROLLED AND MAY MIS-REPORT RAIN FOR SNOW...
$$

 *****  OTHER OBSERVATIONS SOUTHEAST NORTH DAKOTA *****

CITY           SKY/WX    TMP DP  RH WIND       PRES   REMARKS
COOPERSTOWN    FAIR      21  21 100 S7        29.57R FOG     WCI  13
VALLEY CITY    MIX PCPN  23  23 100 S13       29.59F WCI  11
OAKES          NOT AVBL
GWINNER        FAIR      32  32 100 CALM      29.60S
SHEYENNE NWR     N/A     23  19  86 E3        29.95S
BUFFALO          N/A     27  26  95 E8          N/A  WCI  19
WYNDMERE         N/A     28  28 100 N1          N/A
 ***** THE ABOVE OBSERVATIONS ARE NON NWS ARE NOT QUALITY
       CONTROLLED AND MAY MIS-REPORT RAIN FOR SNOW...
$$

  *****  WEATHER ACROSS NORTHERN MINNESOTA  *****

CITY           SKY/WX    TMP DP  RH WIND       PRES   REMARKS
FLAG ISLAND    FAIR      27  23  86 S10       29.59S WCI  17
WARROAD        FAIR      36  30  80 S7        29.60S
ROSEAU         FAIR      30  27  86 S17G23    29.59R WCI  18
HALLOCK        CLOUDY    28  27  93 S23       29.56R FOG     WCI  14
THF RVR FALLS  CLOUDY    32  30  93 S16       29.61F FOG     WCI  21
HALSTAD          N/A     30  28  94 S12         N/A  WCI  20
FOSSTON        PTSUNNY   36  30  80 S12       29.63F HAZE
BAUDETTE       CLOUDY    29  27  92 S9        29.63R FOG     WCI  20
WASKISH        CLOUDY    34  32  93 S8        29.64F
CROOKSTON      PTSUNNY   30  30 100 S13       29.61S FOG     WCI  20
$$
  *****  WEATHER ACROSS CENTRAL AND WEST MINNESOTA  *****

CITY           SKY/WX    TMP DP  RH WIND       PRES   REMARKS
BEMIDJI        CLOUDY    33  32  98 S8        29.65F FOG
PARK RAPIDS    FOG       34  32  92 S8        29.66F VSB 1/4
WADENA         FAIR      37  34  87 S7        29.66S
DETROIT LAKES  FAIR      36  34  93 SE7       29.64F
MOORHEAD       FAIR      34  30  86 S12       29.64S
FERGUS FALLS   FAIR      36  36 100 S13       29.68S
ELBOW LAKE     FAIR      35  33  94 SE14      29.65S FOG
MORRIS MN      FAIR      36  34  93 SE15      29.65F
STAPLES        FAIR      36  34  93 S12       29.68F
WHEATON        FAIR      41  39  93 SE14      29.65S
$$
  *****  WEATHER ELSEWHERE ACROSS MINNESOTA  *****

CITY           SKY/WX    TMP DP  RH WIND       PRES   REMARKS
DULUTH         FAIR      35  35 100 SW5       29.73F FOG
INTRNTL FALLS  CLOUDY    32  30  92 S8        29.66R FOG     WCI  25
ELY            CLOUDY    34  34 100 S6        29.70F FOG
CLOQUET        FAIR      37  34  87 S8        29.73F
BRAINERD       FAIR      36  33  89 S10       29.71F
HIBBING        FOG       32  32 100 S8        29.71F VSB 1/4 WCI  25
ALEXANDRIA     FAIR      37  34  89 S10       29.68F
SAINT CLOUD    FAIR      34  34 100 S7        29.74F
MINNEAPOLIS    FAIR      36  31  82 SE10      29.81S
$$

  *****  WEATHER ACROSS SOUTH DAKOTA  *****

CITY           SKY/WX    TMP DP  RH WIND       PRES   REMARKS
SIOUX FALLS    FOG       36  36 100 S10       29.71S VSB 1/8
BROOKINGS      FAIR      36  34  93 S17       29.65F
WATERTOWN      FAIR      33  32  96 S13       29.61F FOG     WCI  24
HURON          FOG       33  33 100 S15G22    29.61S VSB 3/4 WCI  23
SISSETON         N/A     36  34  92 SE9       29.61S
ABERDEEN       CLOUDY    33  30  88 S13       29.59S FOG     WCI  24
MITCHELL       FOG       35  35 100 S18G26    29.65F VSB 1/4 WCI  24
PIERRE         FAIR      17  15  92 CALM      29.55S
MOBRIDGE       FAIR      16  10  77 S3        29.53R
RAPID CITY     FAIR      41  24  51 N7        29.49S
$$

  *****  SOME WEATHER IN NEARBY STATES *****

CITY           SKY/WX    TMP DP  RH WIND       PRES   REMARKS
GLASGOW MT     FAIR      26  20  77 S8        29.45S WCI  18
GREAT FALLS MT FAIR      41  27  57 SW21      29.47R
CHEYENNE WY    FAIR      50  13  22 W6        29.60R
SCOTTSBLUFF NE FAIR      38  24  57 CALM      29.59S
OMAHA NE       CLOUDY    41  37  86 SE9       29.77F FOG
DES MOINES IA  CLOUDY    38  36  92 E3        29.82F FOG
DAVENPORT IA   CLOUDY    36  34  92 E9        29.90F FOG
CHICAGO IL     CLOUDY    39  36  89 SE5       29.94F FOG
EAU CLAIRE WI  FAIR      35  32  88 SE7       29.84F FOG
LA CROSSE WI   CLOUDY    35  32  88 S7        29.89F FOG
$$

  *****  SOME NATIONAL WEATHER *****

CITY           SKY/WX    TMP DP  RH WIND       PRES   REMARKS
LA GUARDIA NY  FAIR      49  35  58 NW9       30.01F
RALEIGH NC     FAIR      56  39  53 CALM      30.09F
ATLANTA GA     FAIR      70  56  61 SW3       30.03F
NEW ORLEANS LA PTSUNNY   74  69  85 S14G24    29.94F
OKLAHOMA CITY  CLOUDY    49  45  86 S17G23    29.71F
ALBUQUERQUE NM PTSUNNY   39  31  72 NW5       29.95S
SALT LAKE CITY SNOW      28  26  92 CALM      29.80F VSB 1/2
LOS ANGELES CA PTSUNNY   58  54  86 W8        29.95R
BOISE ID       FAIR      38  33  82 SE12      29.66R
SEATTLE WA     MOCLDY    47  39  74 S10       29.50S
$$

*** WEATHER ACROSS MANITOBA...SASKATCHEWAN AND ONTARIO ***
                ***ONTARIO***

CITY           SKY/WX    TMP DP  RH WIND       PRES   REMARKS
GERALDTON      PTSUNNY   34  32  93 S8        29.76F FOG
THUNDER BAY    CLOUDY    28  28 100 CALM      29.79F FOG
SIOUX LOOKOUT  MOSUNNY   34  25  69 S9        29.61S
TORONTO        CLOUDY    36  32  87 W5        30.04F
BIG TROUT LK   SUNNY     32  28  86 S9        29.47F WCI  24
PICKLE LAKE    PTSUNNY   34  27  75 S10G18    29.55F
DRYDEN         SUNNY     34  27  75 S9        29.59F
KENORA         MOSUNNY   34  27  75 S10G18    29.56F
$$
                *** MANITOBA***

CITY           SKY/WX    TMP DP  RH WIND       PRES   REMARKS
BRANDON        PTSUNNY   21  18  86 W6        29.47R WCI  14
DAUPHIN        SUNNY     39  30  70 SW10G17   29.40S
ISLAND LAKE    PTSUNNY   32  27  80 SW8       29.38S WCI  25
PILOT MOUND      N/A     23  19  86 S8          N/A  WCI  14
THE PAS        MOSUNNY   28  27  93 NW8       29.35S WCI  20
THOMPSON       CLOUDY    27  25  93 VRB2      29.34R
WINNIPEG       MOSUNNY   27  21  80 S15G23    29.50S WCI  15
LYNN LAKE      FOG       28  28 100 NW3       29.32R VSB 1
CHURCHILL      LGT SNOW  21  19  93 SE17G24   29.43F VSB 3/4 WCI   7
GILLAM         PTSUNNY   34  30  86 SE5       29.35S
$$
                ***SASKATCHEWAN***

CITY           SKY/WX    TMP DP  RH WIND       PRES   REMARKS
ESTEVAN        PTSUNNY   27  21  80 SW10      29.46S WCI  17
KINDERSLEY     CLOUDY    36  32  87 S10       29.32S
LLOYDMINSTER   CLOUDY    30  25  80 S3        29.25S
PRINCE ALBERT  PTSUNNY   16  14  93 VRB2      29.34R
REGINA         PTSUNNY   34  28  80 SE3       29.40F
YORKTON        SUNNY     32  28  86 SW10      29.40S WC1F1C2F2C3F3C4F4C5F5C6F6C7F7C8F8C9F9CaFaCbFbCcFcCdFdCe!



USA.gov is the U.S. government's official web portal to all federal, state and local government web resources and services.